Torna al catalogo

STARLINK-32340

AttivoComunicazioniVLEO
NORAD 61008·PAYLOAD·🇺🇸 United States

Lanciato Sep 5, 2024 da Cape Canaveral Space Force Station

Loading…

Prossimi Passaggi (prossime 24 ore)

TLE

AggiornatoSource: CelesTrak SupGP

Epoca: Sep 15, 2026, 02:42 UTC

1 61008C 24158U   26258.11298611 -.00022734  00000+0 -67147-3 0  2582
2 61008  53.1571 262.5500 0001225  93.7420 349.8400 15.34411469    11

Traccia STARLINK-32340 in tempo reale con AllMySat

Download on the App Store